Regional Weather Roundup
Issued by NWS

Home | Current Version | Previous Version | Graphics & Text | Print | Product List | Glossary On
Versions: 1 2 3 4 5 6 7 8 9 10 11 12 13 14 15 16 17 18 19 20 21 22 23 24 25 26 27
000
ASUS45 KBOI 220610
RWRID
WEATHER ROUNDUP FOR IDAHO
NATIONAL WEATHER SERVICE BOISE ID
1200 AM MDT WED OCT 22 2014

NOTE: "FAIR" INDICATES FEW OR NO CLOUDS BELOW 12000 FEET
WITH NO SIGNIFICANT WEATHER AND/OR OBSTRUCTIONS TO VISIBILITY

IDZ012-014-220700-
SOUTHWEST IDAHO


CITY           SKY/WX    TMP DP  RH WIND       PRES   REMARKS
BOISE          CLEAR     47  39  74 SE9       30.06S
CALDWELL       CLEAR     45  30  57 SE7       30.08R
MOUNTAIN HOME  CLEAR     42  40  94 E6        30.08S
$$

IDZ016-017-220700-
SOUTHCENTRAL IDAHO


CITY           SKY/WX    TMP DP  RH WIND       PRES   REMARKS
BURLEY         CLEAR     39  32  76 SW10      30.10R WCI  32
JEROME         CLEAR     40  33  76 SE5       30.11R
TWIN FALLS     CLEAR     37  30  75 S8        30.10S WCI  31
$$

IDZ019>023-220700-
SOUTHEAST IDAHO


CITY           SKY/WX    TMP DP  RH WIND       PRES   REMARKS
IDAHO FALLS    CLEAR     42  34  73 S13       30.10R
POCATELLO      CLEAR     42  34  73 SW9       30.12S
REXBURG        PTCLDY    42  34  73 S8        30.10R
$$

IDZ006-010-011-018-031-032-220700-
CENTRAL IDAHO MOUNTAINS


CITY           SKY/WX    TMP DP  RH WIND       PRES   REMARKS
MCCALL         MOCLDY    34  32  92 CALM      30.07S
HAILEY         CLEAR     37  30  75 NW7       30.11R WCI  32
STANLEY          N/A     31  29  92 CALM      30.13S
SALMON         MOCLDY   N/A N/A N/A MISG        N/A  VSB 1
CHALLIS        PTCLDY    35  34  96 CALM      30.11R
$$

IDZ002-004-006-007-026-220700-
NORTHERN IDAHO


CITY           SKY/WX    TMP DP  RH WIND       PRES   REMARKS
LEWISTON       CLEAR     45  38  76 SE6       30.00R
LOWELL           N/A     47  45  93 CALM      30.09R
COEUR D`ALENE  CLEAR     48  41  76 S8        29.98S
MULLAN PASS    CLOUDY    34  33  96 SW6       30.01S WCI  29
$$



USA.gov is the U.S. government's official web portal to all federal, state and local government web resources and services.